Location: ????????
(55.4000°N, 39.1167°E)
Time: 07:34:26
(UTC+00:00)

ARIANE 6 FM1 Upper Stage - Pass Details

Date: 19 May 2025
Orbit: 530 x 611 km, 62.0° (Epoch: 23 June)

Event Time Altitude Azimuth Distance (km) Brightness Sun altitude
Rises 18:44:03 0° 220° (SW) 2,664 6.0 -7.7°
Reaches altitude 10° 18:46:15 10° 217° (SW) 1,779 5.1 -7.9°
Maximum altitude 18:50:10 59° 138° (SE) 623 2.6 -8.2°
Drops below altitude 10° 18:54:10 10° 59° (ENE) 1,810 5.2 -8.5°
Sets 18:56:25 0° 55° (NE) 2,716 6.2 -8.7°
